www.pogodaiklimat.ru

Погода и климат >> Архив погоды >> Россия >> Красноярский край >> Агинское


ПОГОДА в Агинском

  • Прогноз погоды в Агинском
  • Монитор погоды в Агинском

АРХИВ ПОГОДЫ в Агинском

Время (UTC), дата Ветер
(напр.,м/с)
 
Видим.   Явления Облачность Т
(С)
Тd
(С)
f
(%)
Тe
(С)
Тes
(С)
Комфортность P
(гПа)
Po
(гПа)
Тmin
(С)
Tmax
(С)
R
(мм)
R24
(мм)
S
(см)
15 14.08 штиль 0 20 км ясно +10.2 +9.2 94 +9 +9 1016.3 975.5
18 14.08 З 1 4000 м дымка ясно +7.4 +6.7 95 +6 +6 1015.9 974.7
21 14.08 ЮВ 1 4000 м дымка ясно +7.8 +7.1 95 +7 +7 1015.3 974.2
00 15.08 СВ 1 200 м туман ясно +8.3 +7.7 96 +7 +9 1015.3 974.2 +6.6
03 15.08 Ю 1 4000 м дымка {туман} 8/8 1000 м
[Sc]
+10.4 +9.7 95 +10 +12 1014.6 973.9
06 15.08 ЮВ 1 50 км {туман} 8/0
[Ac cast Ci fib]
+17.9 +9.3 57 +19 +27 1012.4 972.8
09 15.08 В 1 50 км 5/5 1000 м
[Cu Sc]
+21.1 +10.6 51 +23 +27 комфорт 1010.8 971.7
12 15.08 штиль 0 50 км 10/0
[Cs]
+18.2 +13.4 74 +18 +19 1011.2 971.7 +21.6
15 15.08 штиль 0 20 км 3/3 1000 м
[Sc]
+12.0 +11.2 95 +11 +11 1011.8 971.4
18 15.08 штиль 0 20 км ясно +8.5 +7.8 95 +8 +8 1012.5 971.5
21 15.08 штиль 0 200 м туман ясно +8.1 +7.4 95 +7 +7 1012.1 971.1
00 16.08 штиль 0 50 м туман ясно +9.1 +8.4 95 +8 +10 1011.1 970.3 +6.9
03 16.08 СВ 1 20 км {туман} 6/3 1000 м
[Sc Ci fib]
+13.9 +11.5 85 +14 +20 1009.9 969.8
06 16.08 Ю 2 20 км {туман} 8/5 1000 м
[Cu Sc Ci]
+20.4 +12.7 61 +23 +28 комфорт 1007.4 968.4
09 16.08 ЮВ 2 50 км 8/3 1000 м
[Sc As trans Cc]
+23.3 +12.7 51 +26 +29 жарко 1006.0 967.3
12 16.08 СВ 1 50 км 10/6 600 м
[Cb cap Ac As]
+20.4 +12.4 60 +24 +24 комфорт 1006.3 967.3 +23.6
15 16.08 З 1 20 км 10/10 900 м
[Cb cap]
+15.6 +11.5 77 +16 +16 1007.4 967.7
18 16.08 СЗ 1 20 км 10/10 1170 м
[Sc]
+13.2 +11.9 92 +13 +13 1008.1 968.0
21 16.08 С 2 20 км 10/10 1200 м
[Sc]
+12.8 +11.5 92 +12 +12 1008.6 968.4
00 17.08 СЗ 2 4000 м дымка 9/5 1000 м
[Sc Ci sp]
+13.4 +11.6 89 +13 +13 1009.8 969.7 +11.7
03 17.08 СЗ 1 4000 м дымка 10/10 930 м
[Cb cap]
+17.2 +13.0 76 +18 +18 1010.5 970.9
06 17.08 З 1 4000 м дымка 9/5 600 м
[Cb cap Ci sp]
+20.5 +13.3 63 +24 +30 комфорт 1010.5 971.3
09 17.08 ЮВ 2 4000 м гроза без осадков 10/10 870 м
[Cb cap]
+21.2 +13.1 60 +24 +24 комфорт 1010.2 971.2
12 17.08 штиль 0 20 км {гроза, ливн. осадки} 9/6 600 м
[Cb cap Ac cast]
+18.4 +13.3 72 +19 +19 1011.8 972.3 +23.4 0.8
15 17.08 штиль 0 4000 м дымка 10/10 900 м
[Cb cap]
+12.0 +11.1 94 +11 +11 1013.9 973.4
18 17.08 С 1 200 м туман ясно +10.5 +9.8 95 +10 +10 1013.8 973.1
21 17.08 штиль 0 200 м туман ясно +8.4 +7.7 95 +7 +7 1014.0 973.0
00 18.08 Ю 1 4000 м дымка {туман} 9/9 600 м
[Cb cap]
+9.2 +8.5 95 +8 +9 1014.9 974.0 +7.4
03 18.08 Ю 2 20 км 10/10 900 м
[Cb cap]
+14.5 +11.7 83 +14 +14 1013.9 973.8
06 18.08 СВ 1 20 км {ливн. осадки} 8/8 600 м
[Cb cap]
+18.8 +10.4 58 +21 +23 комфорт 1012.2 972.7
09 18.08 СВ 2 20 км 10/5 1000 м
[Cu med, cong Cs]
+19.8 +10.0 53 +22 +24 комфорт 1010.8 971.5
12 18.08 С 1 20 км 10/4 600 м
[Cb cap Ac As]
+16.6 +13.0 79 +17 +18 1011.4 971.7 +20.4 0.0
15 18.08 С 1 20 км 6/6 1000 м
[Sc diur, vesp]
+13.7 +11.9 89 +14 +14 1012.8 972.6
18 18.08 С 1 20 км 6/0
[Ac cast]
+11.5 +10.4 93 +11 +11 1013.4 972.9
21 18.08 штиль 0 20 км 8/0
[Ac As]
+9.8 +8.9 94 +9 +9 1014.4 973.6
00 19.08 СЗ 1 4000 м дымка 10/0 2000 м
[Ac As]
+10.2 +9.5 95 +10 +10 1015.8 975.0 +8.2
03 19.08 З 1 20 км 10/10 900 м
[Cb cap]
+15.4 +12.3 82 +16 +16 1015.9 975.8
06 19.08 С 1 20 км 9/9 600 м
[Cb cap]
+19.6 +11.2 58 +22 +23 комфорт 1014.9 975.4
09 19.08 СЗ 2 20 км 6/6 600 м
[Cb cap]
+21.7 +11.2 51 +24 +26 комфорт 1014.4 975.2
12 19.08 З 1 20 км в посл. час гроза {ливн. осадки} 9/6 600 м
[Cb cap Ci sp]
+15.4 +13.3 87 +16 +16 1016.0 976.0 +21.7 2
15 19.08 штиль 0 4000 м дымка ясно +11.8 +11.0 95 +11 +11 1017.7 977.1
18 19.08 С 1 200 м туман ясно +8.8 +8.1 95 +8 +8 1018.0 976.9
21 19.08 штиль 0 200 м туман ясно +6.6 +6.1 97 +5 +5 1018.2 976.7
00 20.08 штиль 0 500 м туман 10/0
[Cs]
+7.8 +7.2 96 +7 +8 1018.0 976.8 +5.8
03 20.08 Ю 1 4000 м дымка {туман} 8/0
[Cs]
+16.5 +12.8 79 +17 +25 1016.0 976.1
06 20.08 Ю 2 20 км {туман} 6/0
[Cc]
+22.1 +11.4 51 +24 +34 комфорт 1013.9 974.8
09 20.08 В 1 20 км 10/5 600 м
[Cb cap Ac As]
+22.4 +11.2 49 +25 +26 комфорт 1012.8 973.7
12 20.08 штиль 0 20 км 10/6 1000 м
[Sc Ac As]
+19.1 +14.7 76 +20 +20 1012.7 973.3 +22.6
15 20.08 штиль 0 20 км 10/10 900 м
[Cb cap]
+15.2 +14.1 93 +15 +15 1012.7 972.8
18 20.08 штиль 0 20 км 10/10 930 м
[Cb cap]
+13.4 +12.6 95 +13 +13 1012.5 972.3
21 20.08 С 1 4000 м слаб. ливневой дождь 10/10 870 м
[Cb cap]
+13.7 +12.8 94 +14 +14 1013.4 973.2
00 21.08 СЗ 2 4000 м слаб. ливневой дождь 10/10 840 м
[Cb cap]
+14.1 +12.9 92 +14 +14 1014.4 974.2 +12.7 5
03 21.08 З 2 20 км {ливн. осадки} 10/10 870 м
[Cb cap]
+15.5 +12.4 82 +15 +15 1015.4 975.4
06 21.08 З 3 50 км {ливн. осадки} 8/8 600 м
[Cb cap]
+17.1 +9.9 63 +17 +19 1015.3 975.4
09 21.08 Ю 1 50 км 6/6 600 м
[Cb cap]
+20.7 +8.7 46 +23 +26 комфорт 1013.8 974.5
12 21.08 штиль 0 50 км 8/8 600 м
[Cb cap]
+17.5 +11.7 69 +18 +18 1014.1 974.4 +20.8 0.5

 

Местоположение метеостанции Агинское (Красноярский край, Россия): широта 55.25 долгота 94.88 высота над уровнем моря 337 м.

В архиве по умолчанию представлена погода в Агинском за последнюю неделю. Архивные данные за месяц целиком и за предыдущие месяцы, начиная с января 2011 года, Вы можете получить, выбрав интересующий диапазон дат из раскрывающегося списка и нажав кнопку "Ввод!".


*Определитесь, кто Вы:
робот инопланетянин человек

Внимание! Время в таблицах - всемирное. Для получения местного времени необходимо прибавить поправку, которая равна 7 ч.

Смотрите также архив погоды в соседних городах и на ближайших метеорологических станциях:

Погода в Ирбейском (Красноярский край, Россия) (56 км)
Погода в Уяре (Красноярский край, Россия) (70 км)
Погода в Шалинском (Красноярский край, Россия) (88 км)
Погода в Анастасино (Красноярский край, Россия) (96 км)
Погода в Солянке (Красноярский край, Россия) (105 км)
Погода в Канске (Красноярский край, Россия) (116 км)
Погода в Щетинкино (Красноярский край, Россия) (123 км)
Погода в Артемовске (Красноярский край, Россия) (126 км)
Погода в Железногорске (Красноярский край, Россия) (140 км)
Погода в Роевом Ручье (Красноярский край, Россия) (157 км)

Пояснения к столбцам:

Ветер - указаны скорость ветра в м/с - средняя за 10 мин, порывы в срок и между сроками (в фигурных скобках) и направление, откуда дует ветер: С - северный, СВ - северо-восточный, В - восточный, ЮВ - юго-восточный, Ю - южный, ЮЗ - юго-западный, З - западный, СЗ - северо-западный.
Видимость - горизонтальная дальность видимости в метрах или километрах. При видимости от 1 до 10 км при отсутствии осадков обычно наблюдается дымка, при ухудшении видимости до 1 км и менее - туман. В сухую погоду видимость может ухудшаться дымом, пылью или мглою.
Явления - указаны атмосферные явления, наблюдавшиеся в срок или в последний час перед сроком; фигурными скобками обозначены явления, наблюдавшиеся между сроками (за 1-3 часа до срока); квадратными скобками обозначены град или гололедные отложения с указанием их диаметра в мм.
Облачность - указаны через наклонную черту общая и нижняя облачность в баллах и высота нижней границы облаков в метрах; квадратными скобками обозначены формы облаков: Ci - перистые, Cs - перисто-слоистые, Cc - перисто-кучевые, Ac - высококучевые, As - высокослоистые, Sc - слоисто-кучевые, Ns - слоисто-дождевые, Cu - кучевые, Cb - кучево-дождевые. Подробнее классификацию облаков см. в Атласе облаков (PDF).
T - Температура воздуха - температура, измеренная на высоте 2 м над землей.
Td - Температура точки росы - температура, при понижении до которой содержащийся в воздухе водяной пар достигнет насыщения.
f - Относительная влажность воздуха - влажноcть воздуха, измеренная на высоте 2 м над землей.
Te - Эффективная температура - температура, которую ощущает одетый по сезону человек в тени. Характеристика душности погоды. При расчете учитывается влияние влажности воздуха и скорости ветра на теплоощущения человека.
Tes - Эффективная температура на солнце - температура, которую ощущает человек, с поправкой на солнечный нагрев. Характеристика знойности погоды. Зависит от высоты солнца над горизонтом, облачности и скорости ветра. Ночью, в пасмурную погоду, а также при ветре 12 м/с и более поправка равна нулю.
P - Атмосферное давление - приведенное к уровню моря атмосферное давление.
Po - Атмосферное давление - измеренное на уровне метеостанции атмосферное давление.
Tmin - Минимальная температура - минимум температуры воздуха на высоте 2 м над землей.
Tmax - Максимальная температура - максимум температуры воздуха на высоте 2 м над землей.
R - Количество осадков - Количество выпавших осадков за период времени, мм. При наведении курсора мыши на число - период времени, за который выпало указанное количество осадков.
R24 - Количество осадков - Количество выпавших осадков за 24 часа, мм.
S - Снежный покров - Высота снежного покрова, см. При наведении курсора мыши на число - состояние снежного покрова и степень покрытия местности в баллах.